Find Starlink 34696

NORAD ID: 64808 Int'l Des: 2025-150 Owner: SPXS Country: US Constellation: starlink operational
LEOCIRCULAR

Live Position

Loading 3D Globe...

About Starlink 34696

Description loading...

Upcoming Passes

Passes for default location (London). Set your location on the main map for personalized predictions.

Altitude History

Loading altitude history...

Two-Line Element Set

1 64808U 25150U 26109.93638971 .00003001 00000-0 25913-3 0 9990
2 64808 70.0032 30.5200 0002381 271.7509 88.3378 14.98338870 42694
Epoch: Apr 19, 2026 • Age: 5 hours

Current Status

Altitude 582.7 km
Velocity 7.57 km/s
Sub-Earth Point 58.32°N, 164.13°E
Launch Date Jul 16, 2025
Age 0.7 years
Type internet

Technical Details

Classification Payload
Mass 575.00 kg
Dry Mass 530.00 kg
Total Mass 575.00 kg
Length 0.30 m
Diameter 4.10 m
Span 29.00 m
Shape Box + pan
Manufacturer SPXS
Bus Type Starlink V2MO
Phase Status In Orbit
Owner/State SPXS/US

Most Searched